TimeCDT,TemperatureF,Dew PointF,Humidity,Sea Level PressureIn,VisibilityMPH,Wind Direction,Wind SpeedMPH,Gust SpeedMPH,PrecipitationIn,Events,Conditions,WindDirDegrees,DateUTC
12:13 AM,60.8,44.6,55,29.82,10.0,ESE,8.1,-,N/A,,Clear,120,2012-10-04 05:13:00
12:33 AM,60.8,44.6,55,29.80,10.0,ESE,9.2,16.1,N/A,,Clear,120,2012-10-04 05:33:00
12:53 AM,60.8,44.6,55,29.79,10.0,ESE,6.9,-,N/A,,Clear,110,2012-10-04 05:53:00
1:13 AM,59.0,44.6,59,29.78,10.0,ESE,8.1,-,N/A,,Clear,110,2012-10-04 06:13:00
1:33 AM,59.0,44.6,59,29.77,10.0,ESE,8.1,-,N/A,,Clear,120,2012-10-04 06:33:00
1:53 AM,59.0,44.6,59,29.76,10.0,ESE,9.2,-,N/A,,Clear,120,2012-10-04 06:53:00
2:13 AM,60.8,42.8,52,29.75,10.0,ESE,10.4,-,N/A,,Scattered Clouds,120,2012-10-04 07:13:00
2:33 AM,60.8,42.8,52,29.74,10.0,ESE,10.4,-,N/A,,Unknown,120,2012-10-04 07:33:00
2:53 AM,60.8,42.8,52,29.73,10.0,SE,9.2,-,N/A,,Unknown,130,2012-10-04 07:53:00
3:13 AM,62.6,41.0,45,29.72,10.0,SE,10.4,19.6,N/A,,Unknown,130,2012-10-04 08:13:00
3:33 AM,60.8,39.2,45,29.71,10.0,SE,13.8,-,N/A,,Scattered Clouds,140,2012-10-04 08:33:00
3:53 AM,60.8,39.2,45,29.71,10.0,South,10.4,17.3,N/A,,Unknown,180,2012-10-04 08:53:00
4:13 AM,57.2,39.2,51,29.73,7.0,SSW,18.4,29.9,N/A,,Unknown,200,2012-10-04 09:13:00
4:33 AM,53.6,39.2,58,29.74,10.0,SSW,11.5,20.7,N/A,,Clear,200,2012-10-04 09:33:00
4:53 AM,51.8,39.2,62,29.75,10.0,SSW,11.5,21.9,N/A,,Clear,210,2012-10-04 09:53:00
5:13 AM,48.2,39.2,71,29.76,10.0,SW,13.8,24.2,N/A,,Scattered Clouds,220,2012-10-04 10:13:00
5:33 AM,48.2,39.2,71,29.77,10.0,SSW,9.2,21.9,N/A,,Unknown,210,2012-10-04 10:33:00
5:53 AM,48.2,39.2,71,29.78,10.0,SSW,12.7,26.5,N/A,,Unknown,210,2012-10-04 10:53:00
6:13 AM,48.2,39.2,71,29.78,10.0,SSW,10.4,18.4,N/A,,Unknown,210,2012-10-04 11:13:00
6:33 AM,46.4,39.2,76,29.79,10.0,SW,15.0,21.9,N/A,,Unknown,220,2012-10-04 11:33:00
6:53 AM,46.4,39.2,76,29.79,10.0,SW,11.5,21.9,N/A,,Unknown,230,2012-10-04 11:53:00
7:13 AM,46.4,39.2,76,29.80,10.0,SW,9.2,19.6,N/A,,Overcast,230,2012-10-04 12:13:00
7:38 AM,44.6,37.4,76,29.82,10.0,WSW,20.7,28.8,N/A,,Unknown,240,2012-10-04 12:38:00
7:53 AM,44.6,37.4,76,29.82,10.0,SW,19.6,27.6,N/A,,Unknown,220,2012-10-04 12:53:00
8:13 AM,44.6,37.4,76,29.83,10.0,SW,16.1,24.2,N/A,,Unknown,230,2012-10-04 13:13:00
8:33 AM,42.8,35.6,76,29.84,10.0,SW,19.6,32.2,N/A,,Unknown,230,2012-10-04 13:33:00
8:53 AM,41.0,33.8,76,29.85,10.0,SW,10.4,23.0,N/A,,Unknown,220,2012-10-04 13:53:00
9:13 AM,41.0,33.8,76,29.86,10.0,WSW,20.7,28.8,N/A,,Unknown,240,2012-10-04 14:13:00
9:33 AM,41.0,33.8,76,29.87,10.0,SW,11.5,25.3,N/A,,Unknown,220,2012-10-04 14:33:00
9:53 AM,41.0,32.0,70,29.88,10.0,WSW,20.7,32.2,N/A,,Unknown,240,2012-10-04 14:53:00
10:13 AM,42.8,32.0,66,29.89,10.0,WSW,17.3,25.3,N/A,,Unknown,240,2012-10-04 15:13:00
10:33 AM,42.8,32.0,66,29.90,10.0,West,18.4,31.1,N/A,,Overcast,260,2012-10-04 15:33:00
10:53 AM,42.8,32.0,66,29.91,10.0,WSW,21.9,28.8,N/A,,Overcast,250,2012-10-04 15:53:00
11:33 AM,44.6,30.2,57,29.93,10.0,WSW,18.4,27.6,N/A,,Overcast,250,2012-10-04 16:33:00
11:53 AM,44.6,30.2,57,29.94,10.0,WSW,20.7,29.9,N/A,,Unknown,250,2012-10-04 16:53:00
12:13 PM,46.4,30.2,53,29.94,10.0,West,17.3,27.6,N/A,,Unknown,260,2012-10-04 17:13:00
12:33 PM,46.4,30.2,53,29.95,10.0,WSW,21.9,33.4,N/A,,Unknown,250,2012-10-04 17:33:00
12:53 PM,46.4,30.2,53,29.97,10.0,West,25.3,34.5,N/A,,Unknown,260,2012-10-04 17:53:00
1:13 PM,46.4,30.2,53,29.97,10.0,West,19.6,28.8,N/A,,Unknown,260,2012-10-04 18:13:00
1:33 PM,46.4,30.2,53,29.98,10.0,WSW,25.3,34.5,N/A,,Unknown,250,2012-10-04 18:33:00
1:53 PM,48.2,28.4,46,29.98,10.0,WSW,23.0,33.4,N/A,,Unknown,240,2012-10-04 18:53:00
2:13 PM,46.4,28.4,50,29.99,10.0,WSW,26.5,-,N/A,,Overcast,250,2012-10-04 19:13:00
2:33 PM,46.4,28.4,50,30.01,10.0,WSW,25.3,34.5,N/A,,Unknown,250,2012-10-04 19:33:00
2:53 PM,46.4,28.4,50,30.01,10.0,West,25.3,33.4,N/A,,Unknown,270,2012-10-04 19:53:00
3:13 PM,46.4,28.4,50,30.02,10.0,West,21.9,39.1,N/A,,Unknown,270,2012-10-04 20:13:00
3:33 PM,46.4,30.2,53,30.02,10.0,WSW,15.0,29.9,N/A,,Unknown,250,2012-10-04 20:33:00
3:53 PM,46.4,28.4,50,30.03,10.0,West,24.2,36.8,N/A,,Unknown,270,2012-10-04 20:53:00
4:13 PM,44.6,30.2,57,30.04,10.0,WSW,21.9,32.2,N/A,,Unknown,250,2012-10-04 21:13:00
4:33 PM,44.6,28.4,53,30.04,10.0,West,25.3,32.2,N/A,,Unknown,280,2012-10-04 21:33:00
4:53 PM,44.6,28.4,53,30.05,10.0,West,20.7,31.1,N/A,,Unknown,270,2012-10-04 21:53:00
5:13 PM,44.6,28.4,53,30.06,10.0,West,20.7,35.7,N/A,,Unknown,260,2012-10-04 22:13:00
5:33 PM,44.6,28.4,53,30.07,10.0,West,17.3,27.6,N/A,,Unknown,260,2012-10-04 22:33:00
5:53 PM,44.6,28.4,53,30.07,10.0,West,18.4,26.5,N/A,,Unknown,270,2012-10-04 22:53:00
6:13 PM,44.6,28.4,53,30.08,10.0,West,21.9,28.8,N/A,,Unknown,280,2012-10-04 23:13:00
6:33 PM,42.8,28.4,57,30.08,10.0,West,13.8,29.9,N/A,,Overcast,270,2012-10-04 23:33:00
6:52 PM,42.8,28.4,57,30.09,10.0,West,15.0,26.5,N/A,,Overcast,270,2012-10-04 23:52:00
7:13 PM,42.8,28.4,57,30.09,10.0,West,16.1,21.9,N/A,,Unknown,270,2012-10-05 00:13:00
7:33 PM,42.8,28.4,57,30.09,10.0,West,18.4,25.3,N/A,,Unknown,270,2012-10-05 00:33:00
8:13 PM,39.2,28.4,65,30.10,10.0,West,18.4,28.8,N/A,,Unknown,270,2012-10-05 01:13:00
8:33 PM,39.2,30.2,70,30.11,10.0,West,16.1,23.0,N/A,,Overcast,270,2012-10-05 01:33:00
8:52 PM,39.2,30.2,70,30.11,10.0,West,9.2,19.6,N/A,,Mostly Cloudy,260,2012-10-05 01:52:00
9:13 PM,39.2,30.2,70,30.11,10.0,West,12.7,-,N/A,,Overcast,260,2012-10-05 02:13:00
9:33 PM,39.2,30.2,70,30.11,10.0,WSW,13.8,20.7,N/A,,Mostly Cloudy,250,2012-10-05 02:33:00
9:53 PM,39.2,30.2,70,30.11,10.0,West,11.5,-,N/A,,Mostly Cloudy,260,2012-10-05 02:53:00
10:13 PM,39.2,30.2,70,30.11,10.0,West,12.7,19.6,N/A,,Unknown,260,2012-10-05 03:13:00
10:33 PM,39.2,28.4,65,30.12,10.0,West,17.3,21.9,N/A,,Unknown,260,2012-10-05 03:33:00
10:53 PM,39.2,30.2,70,30.12,10.0,West,15.0,21.9,N/A,,Unknown,260,2012-10-05 03:53:00
11:13 PM,39.2,30.2,70,30.12,10.0,West,15.0,25.3,N/A,,Overcast,260,2012-10-05 04:13:00
11:33 PM,39.2,30.2,70,30.12,10.0,West,10.4,17.3,N/A,,Overcast,260,2012-10-05 04:33:00
11:53 PM,39.2,28.4,65,30.11,10.0,WSW,11.5,20.7,N/A,,Overcast,250,2012-10-05 04:53:00